Lubbock, TX

4:50 AM CST on December 10, 2019 (GMT -0600)
Lubbock International

Weather History for KLBB - May, 2019

Change the Weather History Date:

Sunday, May 12, 2019

  Actual Average Record
Temperature  
Mean Temperature 62 °F 69 °F  
Max Temperature 76 °F 83 °F 100 °F (2018)
Min Temperature 47 °F 55 °F 35 °F (1960)
Degree Days  
Heating Degree Days 3 1  
Month to date heating degree days 51 25  
Since 1 July heating degree days 3448 3362  
Cooling Degree Days 0 5  
Month to date cooling degree days 28 49  
Year to date cooling degree days 91 105  
Growing Degree Days 10 (Base 50)    
Moisture  
Dew Point 51 °F    
Average Humidity 66    
Maximum Humidity 96    
Minimum Humidity 36    
Precipitation  
Precipitation T in 0.06 in 3.32 in (1929)
Month to date precipitation 0.69 0.69  
Year to date precipitation 3.61 4.60  
Snow  
Snow 0.00 in 0.00 in 0.00 in (2002)
Month to date snowfall T 0.0  
Since 1 July snowfall 10.1 8.2  
Snow Depth 0.00 in    
Sea Level Pressure  
Sea Level Pressure 29.88 in    
Wind  
Wind Speed 6 mph (South)    
Max Wind Speed 14 mph    
Max Gust Speed 20 mph    
Visibility 10 miles    
Events      
T = Trace of Precipitation, MM = Missing Value Source: NWS Daily Summary

Daily Weather History Graph

Daily Weather History Graph

Search for Another Location

Airport or City:

Astronomy

May. 12, 2019 Rise Set
Actual Time 6:48 AM CDT 8:38 PM CDT
Civil Twilight 6:21 AM CDT 9:06 PM CDT
Nautical Twilight 5:48 AM CDT 9:39 PM CDT
Astronomical Twilight 5:13 AM CDT 10:14 PM CDT
Moon 2:07 PM CDT (5/12) 3:04 AM CDT (5/12)
Length of Visible Light 14h 44m
Length of Day
13h 49m
First Quarter, 58% of the Moon is Illuminated
May 12
First Quarter
May 18
Full
May 26
Last Quarter
Jun 3
New
Jun 10
First Quarter

Hourly Weather History & Observations

Time (CDT) Temp. Dew Point Humidity Pressure Visibility Wind Dir Wind Speed Gust Speed Precip Events Conditions
12:53 AM 53.1 °F 50.0 °F 89% 29.88 in 10.0 mi SSE 8.1 mph - N/A   Partly Cloudy
1:53 AM 52.0 °F 50.0 °F 93% 29.87 in 10.0 mi SSE 4.6 mph - N/A   Partly Cloudy
2:53 AM 51.1 °F 48.9 °F 92% 29.86 in 10.0 mi Calm Calm - N/A   Partly Cloudy
3:53 AM 50.0 °F 48.0 °F 93% 29.86 in 10.0 mi SW 5.8 mph - N/A   Partly Cloudy
4:53 AM 48.9 °F 46.9 °F 93% 29.86 in 10.0 mi West 5.8 mph - N/A   Partly Cloudy
5:53 AM 48.0 °F 46.9 °F 96% 29.88 in 10.0 mi NW 3.5 mph - N/A   Partly Cloudy
6:53 AM 48.0 °F 46.9 °F 96% 29.89 in 5.0 mi Calm Calm - N/A   Partly Cloudy
7:53 AM 52.0 °F 50.0 °F 93% 29.91 in 6.0 mi NW 4.6 mph - N/A   Partly Cloudy
8:53 AM 55.9 °F 52.0 °F 87% 29.91 in 8.0 mi West 6.9 mph - N/A   Partly Cloudy
9:53 AM 60.1 °F 53.1 °F 78% 29.92 in 10.0 mi NNW 6.9 mph - N/A   Partly Cloudy
10:46 AM 64.0 °F 54.0 °F 70% 30.00 in 10.0 mi NNE 5.8 mph - N/A   Mostly Cloudy
10:53 AM 63.0 °F 53.1 °F 70% 29.92 in 10.0 mi Calm Calm - N/A   Mostly Cloudy
11:12 AM 63.0 °F 53.1 °F 70% 30.00 in 10.0 mi Calm Calm - N/A   Scattered Clouds
11:53 AM 66.0 °F 53.1 °F 63% 29.91 in 10.0 mi Variable 3.5 mph - N/A   Scattered Clouds
11:59 AM 66.9 °F 52.0 °F 59% 29.99 in 10.0 mi SE 5.8 mph - N/A   Mostly Cloudy
12:03 PM 66.9 °F 52.0 °F 59% 29.99 in 10.0 mi Variable 3.5 mph - N/A   Mostly Cloudy
12:53 PM 69.1 °F 53.1 °F 57% 29.89 in 10.0 mi East 4.6 mph - N/A   Mostly Cloudy
1:53 PM 71.1 °F 50.0 °F 47% 29.87 in 10.0 mi SSW 9.2 mph - N/A   Mostly Cloudy
2:53 PM 73.0 °F 48.9 °F 42% 29.85 in 10.0 mi SW 6.9 mph - N/A   Mostly Cloudy
3:53 PM 75.0 °F 48.9 °F 40% 29.82 in 10.0 mi West 6.9 mph - N/A   Mostly Cloudy
4:53 PM 75.0 °F 46.9 °F 37% 29.80 in 10.0 mi Variable 4.6 mph - N/A   Scattered Clouds
5:53 PM 73.0 °F 46.9 °F 39% 29.79 in 10.0 mi SSW 3.5 mph - N/A   Mostly Cloudy
6:53 PM 72.0 °F 48.9 °F 44% 29.80 in 10.0 mi SSE 9.2 mph - N/A   Mostly Cloudy
7:53 PM 71.1 °F 51.1 °F 49% 29.80 in 10.0 mi SSE 8.1 mph - N/A   Mostly Cloudy
8:53 PM 66.0 °F 54.0 °F 65% 29.83 in 10.0 mi SSE 9.2 mph - N/A   Mostly Cloudy
9:53 PM 62.1 °F 54.0 °F 75% 29.84 in 10.0 mi SE 5.8 mph - N/A   Scattered Clouds
10:53 PM 61.0 °F 54.0 °F 78% 29.87 in 10.0 mi ESE 6.9 mph - N/A   Mostly Cloudy
11:53 PM 63.0 °F 54.0 °F 72% 29.87 in 10.0 mi SE 9.2 mph - N/A   Overcast